Wind_Speed
4 4 3 2 2 2 2 3 3 4 5 4 4 5 5 5 6 7 8 7 6 6 7 8 8 8 8 9 9 10 12 13 15 17 20 23 27 30 32 35 37 39 43 44
4 5 5 4 3 3 3 3 4 5 5 5 5 5 5 6 6 7 8 9 9 9 8 8 8 9 10 11 11 12 13 14 15 17 19 21 25 29 31 34 36 38 41 42
4 4 5 5 5 5 5 5 5 5 5 5 6 6 6 6 7 8 8 9 10 11 10 10 11 11 11 11 13 14 15 16 18 19 20 22 24 27 30 33 35 38 40 41
4 5 5 5 5 5 5 5 5 5 5 6 7 7 7 7 8 9 10 10 11 12 12 13 13 13 14 15 16 17 17 18 19 20 21 22 24 27 30 32 34 36 37 39
6 5 5 6 6 6 7 7 6 6 6 7 7 7 7 8 9 11 11 12 13 13 14 14 15 16 18 18 19 20 20 20 21 22 23 24 25 27 29 32 33 34 36 37
7 7 6 6 7 7 7 7 7 7 7 7 7 8 9 10 11 12 13 14 15 16 16 16 17 19 20 21 21 22 22 23 23 24 24 25 26 27 28 30 31 33 35 36
8 8 8 8 8 8 9 8 8 9 9 9 9 10 10 11 12 13 14 15 16 17 18 19 19 20 21 22 23 23 24 25 26 25 25 26 27 27 28 30 31 33 34 36
10 9 9 9 10 10 10 10 10 10 11 11 12 12 13 13 14 15 16 17 18 19 20 21 21 22 22 24 25 26 27 27 26 26 27 27 28 28 28 30 31 32 33 34
12 11 12 12 12 12 12 12 13 13 13 14 15 15 15 16 17 17 18 19 20 21 22 23 24 24 24 26 27 28 28 29 28 28 28 29 29 30 31 31 32 32 34 35
15 14 15 15 15 15 15 15 16 17 17 18 18 19 19 19 19 20 20 21 21 22 23 24 25 26 27 28 29 30 31 30 29 30 30 30 31 32 33 33 33 33 34 35
18 18 19 18 18 18 18 19 20 20 21 22 22 22 22 22 22 22 22 22 23 24 25 26 27 28 30 31 32 33 32 32 33 33 33 33 33 33 33 33 33 33 34 34
20 21 22 21 21 22 22 22 23 23 24 24 24 24 24 24 25 25 25 25 26 27 28 28 29 30 31 33 34 34 34 34 35 35 36 35 35 35 34 34 34 34 35 35
25 25 25 24 25 25 25 25 26 26 26 26 26 26 27 27 28 28 28 28 29 29 30 31 32 33 34 35 36 36 36 37 37 37 37 37 37 36 36 36 36 36 36 36
28 28 28 27 28 28 28 28 28 28 29 29 29 29 29 30 30 30 30 31 32 32 33 33 35 35 36 37 37 38 39 39 39 39 39 39 38 37 37 37 36 36 36 36
30 30 30 30 30 30 31 30 30 30 31 31 31 31 31 31 32 32 32 33 34 34 35 36 37 37 37 38 39 40 40 40 41 41 40 39 39 39 39 38 38 37 36 36
31 31 31 31 32 32 32 32 32 32 32 33 32 32 33 33 33 34 34 35 36 37 38 38 38 38 39 40 41 42 41 42 42 41 40 40 39 39 39 38 38 37 36 36
31 31 32 32 33 33 33 33 32 33 33 33 34 34 34 35 35 36 36 37 38 39 39 39 39 40 41 42 43 43 42 41 41 40 40 40 40 40 39 38 37 37 36 36
32 33 34 35 34 34 33 33 33 34 34 34 34 35 35 35 36 37 38 38 39 39 39 40 41 42 43 44 43 42 42 42 41 40 40 40 40 41 40 39 38 37 36 35
33 34 35 35 35 34 33 33 34 34 35 35 36 35 36 36 37 37 38 38 39 39 40 41 42 42 43 43 42 42 42 41 41 40 41 40 40 40 40 39 38 37 35 35
33 34 35 35 34 34 34 35 35 36 36 37 37 37 37 37 38 38 38 38 39 39 41 42 42 42 42 42 42 42 41 41 41 41 41 40 40 39 39 38 37 36 35 34
33 34 35 35 35 35 35 36 36 36 37 38 38 38 38 38 39 38 39 39 40 41 41 42 42 41 42 42 41 41 41 41 41 41 40 40 39 38 37 36 35 34 33 32
34 34 35 35 34 34 35 36 36 36 37 38 38 39 39 39 39 39 39 40 40 41 41 42 41 41 41 41 41 41 41 41 40 40 39 38 37 36 36 35 34 32 31 30
34 34 35 35 35 35 35 35 36 37 38 38 39 39 40 40 40 40 40 40 41 41 41 41 41 40 41 41 41 41 40 40 39 39 38 37 36 35 34 33 32 30 29 29
36 35 35 36 36 36 36 36 37 38 38 39 39 40 40 40 40 40 40 41 41 41 41 41 41 41 41 41 41 40 39 38 38 37 37 36 35 34 33 31 30 29 28 28
37 37 37 37 37 37 38 38 38 39 39 39 40 40 40 40 40 40 40 41 41 41 41 41 40 40 40 40 39 39 38 37 37 37 36 35 34 32 31 30 28 28 27 27
37 38 38 39 39 39 40 40 40 40 40 40 40 40 40 40 40 40 40 40 40 41 40 40 39 39 39 38 38 37 37 36 36 36 36 34 33 31 30 29 28 27 27 26
39 39 40 40 40 41 41 40 40 40 40 39 39 39 39 40 39 39 40 40 40 40 39 39 38 38 37 37 36 37 37 37 36 35 34 33 32 30 29 28 27 27 26 25
Wind_Direction
223 226 232 245 276 302 327 349 357 5 3 2 7 13 18 21 18 11 5 2 358 348 345 342 337 331 320 309 303 295 291 286 278 279 272 264 258 255 254 252 250 248 247 248
232 231 231 239 258 274 292 313 330 338 344 347 352 2 3 4 5 3 2 0 1 356 347 340 333 322 317 312 305 299 295 294 290 287 281 272 264 260 259 255 251 249 249 249
231 238 236 238 255 272 279 292 307 317 331 338 344 348 351 354 358 358 353 350 347 346 342 340 336 326 318 315 311 305 300 297 292 289 285 278 270 265 261 258 255 252 251 250
248 251 252 251 258 270 277 288 299 303 314 329 342 346 342 349 351 348 347 347 345 340 339 337 336 332 324 318 314 312 309 303 296 292 287 282 276 272 267 262 260 256 255 254
256 260 260 261 269 274 275 282 292 297 309 324 338 343 340 340 340 341 342 340 342 341 339 337 336 335 329 321 317 313 311 308 302 298 293 288 284 278 272 268 264 260 257 257
258 262 264 266 269 275 279 280 283 288 296 308 322 326 324 327 330 332 334 337 337 337 336 334 333 330 330 328 324 319 313 309 304 299 297 295 291 285 278 273 268 265 261 259
257 264 266 269 275 281 283 286 287 288 291 299 309 313 313 318 321 322 324 327 327 327 328 328 328 327 328 326 325 321 315 311 309 304 301 301 297 292 285 279 275 272 268 264
257 265 269 272 277 280 281 283 288 291 292 295 299 301 302 306 310 312 315 317 319 321 321 322 322 321 320 321 321 321 318 315 311 307 304 303 302 299 295 290 283 277 272 269
259 265 269 272 275 277 278 281 286 289 292 294 296 298 298 301 303 306 308 312 313 315 316 317 318 318 317 319 320 320 318 315 311 307 306 304 302 300 298 296 292 284 278 273
261 265 266 269 271 274 277 280 284 287 290 292 294 296 295 295 299 302 305 308 310 312 314 315 316 317 317 317 318 317 315 313 311 309 308 306 303 301 299 296 295 290 284 280
264 265 266 269 271 274 276 280 283 285 288 290 292 294 294 292 294 298 299 302 305 308 311 314 316 317 317 316 316 315 313 312 310 309 308 307 305 303 300 298 295 292 288 284
262 264 267 270 272 274 276 279 282 284 286 288 290 291 292 291 292 294 296 298 301 305 307 309 311 313 315 314 314 314 313 312 310 310 309 307 305 304 301 299 297 295 292 287
262 263 266 269 271 273 276 277 279 281 283 285 287 288 289 290 290 292 293 295 298 301 304 306 308 310 311 312 312 311 311 310 309 308 308 307 306 305 303 300 299 297 294 289
263 265 267 268 270 272 275 276 277 279 281 282 284 286 288 290 289 289 292 293 295 298 300 302 304 306 308 309 310 310 310 310 308 307 307 306 305 305 303 300 298 296 294 291
266 266 267 268 270 272 273 275 275 276 278 280 282 285 287 289 290 289 290 293 294 296 298 300 302 304 305 307 309 310 310 310 310 308 307 305 304 304 302 300 298 296 294 290
268 269 270 271 273 274 274 274 275 276 278 280 282 284 286 288 289 290 290 291 294 295 297 299 301 302 304 306 308 309 310 310 310 309 308 306 306 305 304 302 299 296 294 291
269 270 271 272 274 275 275 274 274 275 277 280 282 283 284 286 288 289 290 292 294 295 296 298 299 301 302 304 307 308 309 309 309 308 307 307 307 306 305 304 301 298 295 292
271 271 272 273 275 275 274 273 273 274 277 280 282 283 284 285 287 289 290 292 293 295 297 298 298 299 301 303 305 306 307 308 308 308 308 307 307 307 305 304 302 300 297 293
271 272 273 274 274 274 273 273 274 275 279 281 283 283 284 285 286 288 290 292 293 294 297 298 299 300 301 303 305 306 306 306 306 307 307 307 307 307 306 304 303 301 297 293
273 273 273 274 273 273 273 274 276 277 279 281 282 283 283 284 285 287 289 291 292 294 296 298 299 300 301 303 304 306 306 307 307 307 307 306 306 306 306 305 304 302 299 293
275 275 275 275 275 275 275 276 278 279 280 281 282 283 284 284 285 287 288 290 292 294 296 298 300 300 301 302 303 305 306 306 306 306 307 307 306 306 306 305 304 303 301 296
276 275 275 276 276 277 278 278 279 280 281 282 283 284 285 285 286 286 287 289 291 293 295 297 299 300 301 302 303 304 305 306 306 306 306 306 306 306 306 306 305 304 302 299
276 276 276 277 278 279 279 280 281 281 282 283 284 285 286 286 286 286 287 288 290 292 294 296 298 299 300 302 303 304 305 306 306 306 306 306 305 305 305 305 305 303 302 300
276 276 276 277 279 279 280 281 282 282 283 284 284 285 285 285 286 286 287 289 290 292 294 295 296 298 299 301 303 304 305 305 306 306 306 306 305 305 305 304 303 302 301 299
276 277 277 278 279 280 280 281 282 283 284 284 284 284 285 285 286 286 287 289 291 292 293 294 294 297 299 301 303 304 304 305 305 305 306 305 305 304 304 304 303 301 300 299
277 278 278 279 280 281 281 281 281 282 283 283 284 285 286 286 287 287 288 290 291 292 292 293 294 296 298 300 302 303 304 304 305 305 305 305 304 304 304 304 303 302 300 299
279 279 279 280 280 281 281 281 281 282 283 283 283 284 286 287 288 288 289 290 291 291 292 292 293 295 297 299 301 302 304 304 305 304 305 305 304 304 304 303 303 302 300 298
Height
5643 5643 5643 5644 5644 5644 5643 5643 5642 5641 5640 5639 5637 5636 5634 5632 5631 5629 5627 5626 5624 5622 5620 5618 5616 5614 5613 5612 5611 5610 5609 5608 5608 5607 5607 5607 5608 5609 5611 5613 5616 5618 5621 5624
5642 5643 5643 5644 5644 5644 5643 5643 5642 5641 5640 5638 5637 5635 5634 5632 5631 5629 5627 5625 5623 5621 5619 5617 5615 5613 5611 5609 5608 5606 5605 5603 5602 5601 5600 5599 5599 5600 5602 5603 5605 5607 5610 5613
5643 5643 5643 5644 5644 5644 5643 5643 5642 5641 5640 5638 5637 5635 5634 5632 5631 5629 5627 5624 5622 5619 5617 5615 5613 5610 5608 5606 5604 5602 5600 5599 5597 5595 5594 5593 5592 5592 5592 5593 5595 5597 5599 5600
5642 5643 5643 5646 5643 5643 5643 5642 5641 5640 5639 5638 5636 5634 5633 5631 5630 5628 5626 5623 5620 5617 5615 5612 5610 5607 5604 5602 5600 5597 5595 5593 5591 5589 5588 5586 5585 5584 5583 5583 5584 5585 5587 5588
5641 5642 5642 5643 5642 5641 5641 5641 5640 5639 5638 5637 5635 5633 5632 5630 5628 5626 5624 5621 5618 5615 5612 5609 5606 5604 5601 5598 5595 5593 5590 5587 5585 5583 5581 5579 5577 5575 5574 5573 5573 5574 5575 5576
5640 5640 5641 5643 5641 5640 5641 5640 5639 5638 5636 5635 5634 5633 5631 5629 5627 5624 5622 5619 5616 5613 5610 5607 5604 5601 5598 5595 5592 5589 5585 5582 5579 5576 5574 5571 5569 5566 5564 5563 5562 5562 5563 5563
5638 5638 5639 5640 5639 5639 5639 5639 5636 5635 5634 5633 5631 5630 5629 5626 5624 5622 5619 5616 5614 5611 5607 5604 5601 5598 5595 5592 5589 5585 5581 5577 5573 5570 5567 5564 5561 5558 5556 5554 5553 5552 5552 5552
5636 5636 5639 5637 5636 5636 5636 5634 5633 5632 5631 5630 5628 5626 5625 5623 5621 5619 5616 5613 5610 5608 5604 5601 5598 5595 5592 5588 5584 5580 5576 5571 5567 5564 5560 5557 5554 5550 5548 5545 5543 5542 5541 5540
5634 5636 5634 5633 5633 5632 5632 5631 5630 5629 5628 5626 5625 5623 5621 5619 5617 5615 5612 5609 5607 5604 5601 5597 5594 5590 5587 5583 5579 5574 5570 5566 5561 5558 5554 5551 5547 5544 5541 5538 5535 5533 5531 5530
5630 5631 5630 5629 5629 5628 5628 5627 5626 5625 5624 5622 5620 5618 5616 5614 5612 5610 5607 5605 5602 5599 5596 5592 5589 5585 5581 5577 5573 5568 5564 5559 5555 5552 5548 5544 5540 5537 5533 5530 5527 5524 5522 5520
5625 5626 5625 5625 5624 5624 5623 5622 5621 5620 5618 5617 5615 5613 5611 5609 5607 5605 5602 5599 5597 5594 5590 5587 5583 5579 5575 5570 5566 5561 5557 5553 5548 5544 5540 5536 5532 5528 5525 5521 5518 5515 5513 5511
5620 5619 5619 5619 5618 5618 5617 5616 5615 5614 5612 5611 5609 5607 5604 5602 5600 5598 5596 5593 5590 5587 5584 5580 5576 5572 5568 5563 5559 5554 5550 5545 5541 5536 5532 5528 5524 5520 5515 5512 5509 5505 5503 5501
5612 5612 5612 5612 5611 5610 5609 5609 5608 5606 5605 5604 5602 5600 5598 5595 5593 5591 5588 5586 5583 5580 5576 5573 5569 5565 5560 5555 5551 5546 5541 5537 5532 5528 5523 5519 5514 5510 5506 5503 5499 5495 5493 5490
5604 5604 5604 5603 5602 5602 5601 5600 5599 5598 5597 5595 5594 5592 5590 5588 5585 5583 5580 5578 5575 5571 5568 5564 5560 5556 5551 5546 5541 5537 5532 5527 5522 5517 5513 5508 5504 5500 5496 5493 5489 5485 5482 5479
5595 5594 5594 5593 5593 5592 5591 5591 5590 5589 5587 5586 5585 5583 5581 5579 5576 5574 5571 5568 5565 5562 5558 5554 5550 5546 5541 5536 5531 5527 5521 5516 5511 5506 5501 5497 5493 5489 5485 5481 5478 5474 5471 5469
5584 5584 5583 5583 5582 5581 5581 5580 5579 5578 5577 5576 5574 5573 5571 5569 5566 5564 5561 5558 5555 5552 5548 5544 5540 5535 5531 5526 5521 5516 5511 5506 5500 5495 5490 5486 5481 5477 5473 5469 5466 5463 5460 5457
5574 5574 5573 5572 5572 5570 5570 5569 5568 5567 5566 5565 5563 5561 5560 5558 5556 5553 5550 5548 5544 5541 5537 5533 5529 5525 5520 5515 5510 5505 5500 5495 5490 5484 5480 5475 5471 5466 5462 5458 5454 5451 5448 5445
5564 5563 5562 5561 5560 5559 5559 5558 5557 5557 5555 5554 5552 5550 5549 5546 5544 5542 5539 5536 5533 5529 5525 5522 5517 5513 5509 5504 5499 5494 5489 5484 5479 5474 5469 5464 5460 5455 5451 5447 5443 5439 5436 5434
5553 5552 5551 5550 5549 5548 5548 5547 5547 5546 5545 5543 5542 5540 5538 5535 5533 5530 5527 5524 5521 5518 5514 5510 5506 5501 5497 5492 5487 5483 5478 5473 5468 5463 5458 5454 5449 5444 5440 5436 5432 5428 5425 5422
5542 5542 5541 5540 5539 5538 5538 5537 5536 5535 5534 5532 5530 5528 5526 5524 5521 5519 5516 5513 5510 5506 5502 5498 5494 5490 5485 5481 5476 5472 5467 5462 5457 5452 5447 5443 5438 5433 5429 5425 5421 5417 5414 5411
5532 5531 5530 5530 5529 5528 5527 5526 5525 5524 5523 5521 5519 5517 5514 5512 5510 5507 5505 5502 5499 5495 5491 5487 5482 5478 5474 5470 5465 5461 5456 5451 5446 5441 5437 5432 5427 5423 5418 5414 5410 5407 5404 5401
5522 5521 5520 5519 5519 5518 5517 5515 5514 5513 5511 5509 5507 5505 5503 5500 5498 5495 5493 5490 5487 5483 5479 5475 5471 5467 5462 5458 5454 5449 5445 5440 5435 5430 5426 5421 5417 5413 5408 5404 5401 5397 5394 5391
5511 5510 5510 5509 5508 5507 5506 5504 5503 5501 5500 5498 5496 5493 5491 5488 5486 5483 5481 5478 5474 5471 5467 5463 5459 5455 5451 5447 5442 5438 5433 5429 5424 5420 5415 5411 5407 5403 5399 5395 5391 5388 5385 5382
5500 5500 5499 5498 5497 5496 5494 5493 5491 5490 5488 5486 5483 5481 5479 5476 5473 5471 5468 5465 5462 5458 5455 5451 5447 5444 5440 5435 5431 5427 5422 5418 5414 5409 5405 5401 5397 5393 5389 5385 5382 5379 5376 5374
5489 5488 5487 5486 5485 5484 5482 5481 5479 5478 5476 5473 5471 5468 5466 5463 5461 5458 5455 5452 5449 5446 5443 5439 5436 5432 5428 5424 5420 5416 5412 5407 5403 5399 5395 5391 5387 5383 5380 5376 5373 5371 5368 5365
5478 5477 5475 5474 5473 5471 5470 5468 5467 5465 5463 5460 5458 5456 5453 5451 5448 5446 5443 5440 5437 5434 5431 5427 5424 5421 5417 5413 5409 5405 5401 5397 5393 5389 5385 5381 5377 5374 5371 5368 5365 5362 5360 5357
5466 5464 5463 5462 5460 5458 5456 5454 5453 5451 5449 5447 5445 5443 5441 5439 5436 5434 5431 5428 5425 5422 5419 5416 5413 5410 5406 5402 5399 5395 5391 5387 5383 5379 5375 5371 5368 5365 5362 5359 5357 5354 5352 5349